User: anonymous   Login
Location: Clermont
(50.2608°N, 4.3172°E)
Time: 02:42:40
(UTC+00:00)
Language:

GP-B - Orbit

View from above orbital plane
View from above orbital plane
View from above satellite
View from above satellite

Ground track
Ground track

The orbit data is extracted from the following two-line orbital elements,

1 28230U 04014A   20302.46451288 +.00000138 +00000-0 +16603-4 0  9991
2 28230 089.8119 095.5995 0003320 091.7929 268.3674 14.78756883347940
Epoch (UTC): 28 October 2020 11:08:53
Eccentricity: 0.0003320
inclination: 89.8119°
perigee height: 631 km
apogee height: 635 km
right ascension of ascending node: 95.5995°
argument of perigee: 91.7929°
revolutions per day: 14.78756883
mean anomaly at epoch: 268.3674°
orbit number at epoch: 34794

The dashed part of the orbit path shows where the satellite is in the earth's shadow,  

DLR